�������l�o���
Date,Time,MP-1(��Sv/h),MP-2(��Sv/h),MP-3(��Sv/h),MP-4(��Sv/h),MP-5(��Sv/h),MP-6(��Sv/h),MP-7(��Sv/h),MP-8(��Sv/h),����,����(m/s),���J
2023/03/25,00:00,0.550,0.797,0.485,1.004,0.699,0.317,0.571,0.544,�k�k��,5.3,��
2023/03/25,00:10,0.550,0.798,0.486,1.005,0.699,0.317,0.570,0.544,�k�k��,5.6,��
2023/03/25,00:20,0.549,0.797,0.486,1.004,0.700,0.317,0.570,0.543,�k�k��,5.6,��
2023/03/25,00:30,0.549,0.797,0.486,1.004,0.700,0.317,0.572,0.543,�k��,6.0,��
2023/03/25,00:40,0.548,0.797,0.486,1.005,0.699,0.318,0.570,0.542,�k��,6.3,��
2023/03/25,00:50,0.549,0.796,0.486,1.005,0.702,0.316,0.569,0.544,�k��,6.5,��
2023/03/25,01:00,0.549,0.796,0.484,1.004,0.700,0.317,0.571,0.542,�k�k��,7.5,��
2023/03/25,01:10,0.549,0.796,0.485,1.004,0.701,0.317,0.571,0.544,�k�k��,7.7,��
2023/03/25,01:20,0.550,0.797,0.486,1.004,0.700,0.318,0.571,0.542,�k�k��,7.7,��
2023/03/25,01:30,0.549,0.798,0.485,1.005,0.699,0.318,0.572,0.545,�k��,7.0,��
2023/03/25,01:40,0.548,0.798,0.486,1.004,0.701,0.317,0.571,0.544,�k�k��,7.7,��
2023/03/25,01:50,0.549,0.798,0.485,1.006,0.700,0.318,0.573,0.543,�k�k��,7.0,��
2023/03/25,02:00,0.551,0.798,0.485,1.006,0.701,0.319,0.572,0.543,�k�k��,5.2,��
2023/03/25,02:10,0.550,0.797,0.484,1.006,0.702,0.317,0.572,0.544,�k�k��,5.6,��
2023/03/25,02:20,0.549,0.798,0.486,1.005,0.701,0.318,0.572,0.543,�k�k��,5.4,��
2023/03/25,02:30,0.548,0.799,0.485,1.003,0.700,0.318,0.572,0.543,�k�k��,4.2,��
2023/03/25,02:40,0.550,0.799,0.485,1.007,0.700,0.318,0.573,0.544,�k,5.0,��
2023/03/25,02:50,0.550,0.800,0.485,1.006,0.701,0.318,0.572,0.544,�k�k��,6.5,��
2023/03/25,03:00,0.551,0.799,0.485,1.005,0.701,0.317,0.573,0.544,�k�k��,6.7,��
2023/03/25,03:10,0.549,0.797,0.486,1.007,0.701,0.318,0.573,0.544,�k�k��,6.3,��
2023/03/25,03:20,0.550,0.798,0.487,1.005,0.700,0.317,0.573,0.544,�k�k��,7.1,��
2023/03/25,03:30,0.550,0.800,0.486,1.005,0.701,0.316,0.573,0.543,�k�k��,7.5,��
2023/03/25,03:40,0.550,0.798,0.485,1.006,0.701,0.320,0.572,0.544,�k�k��,7.1,��
2023/03/25,03:50,0.551,0.798,0.485,1.004,0.700,0.317,0.573,0.545,�k�k��,6.2,��
2023/03/25,04:00,0.550,0.799,0.486,1.007,0.701,0.317,0.572,0.544,�k�k��,6.9,��
2023/03/25,04:10,0.550,0.797,0.486,1.005,0.699,0.318,0.574,0.546,�k,6.3,��
2023/03/25,04:20,0.549,0.797,0.486,1.005,0.702,0.317,0.571,0.544,�k,7.4,�L
2023/03/25,04:30,0.549,0.800,0.486,1.006,0.700,0.318,0.574,0.544,�k,7.5,�L
2023/03/25,04:40,0.549,0.798,0.486,1.005,0.702,0.317,0.573,0.544,�k,6.3,�L
2023/03/25,04:50,0.551,0.798,0.485,1.005,0.701,0.317,0.572,0.543,�k,6.9,�L
2023/03/25,05:00,0.548,0.799,0.487,1.007,0.702,0.316,0.572,0.543,�k,7.4,�L
2023/03/25,05:10,0.548,0.800,0.487,1.006,0.700,0.318,0.572,0.544,�k,7.3,�L
2023/03/25,05:20,0.550,0.797,0.486,1.006,0.700,0.317,0.572,0.544,�k,7.6,�L
2023/03/25,05:30,0.550,0.798,0.485,1.008,0.701,0.316,0.572,0.545,�k�k��,8.2,��
2023/03/25,05:40,0.552,0.798,0.486,1.005,0.700,0.318,0.573,0.545,�k�k��,7.9,��
2023/03/25,05:50,0.549,0.799,0.485,1.007,0.701,0.319,0.571,0.544,�k�k��,8.5,��
2023/03/25,06:00,0.550,0.798,0.485,1.005,0.700,0.317,0.570,0.545,�k�k��,8.0,��
2023/03/25,06:10,0.550,0.799,0.486,1.005,0.701,0.317,0.572,0.545,�k�k��,7.0,��
2023/03/25,06:20,0.550,0.799,0.485,1.006,0.702,0.317,0.571,0.543,�k�k��,7.6,��
2023/03/25,06:30,0.550,0.799,0.486,1.007,0.702,0.316,0.571,0.546,�k,7.9,��
2023/03/25,06:40,0.550,0.800,0.485,1.005,0.703,0.318,0.570,0.545,�k,5.8,��
2023/03/25,06:50,0.550,0.801,0.486,1.007,0.701,0.317,0.570,0.544,�k,6.7,��
2023/03/25,07:00,0.553,0.798,0.485,1.006,0.702,0.317,0.571,0.544,�k�k��,5.7,�L
2023/03/25,07:10,0.550,0.799,0.486,1.007,0.702,0.316,0.572,0.544,�k,5.0,��
2023/03/25,07:20,0.549,0.800,0.486,1.006,0.701,0.317,0.571,0.544,�k�k��,3.8,��
2023/03/25,07:30,0.551,0.798,0.487,1.006,0.703,0.318,0.571,0.544,�k�k��,4.4,��
2023/03/25,07:40,0.550,0.801,0.487,1.008,0.702,0.317,0.571,0.543,�k�k��,4.1,��
2023/03/25,07:50,0.549,0.799,0.485,1.006,0.702,0.317,0.572,0.545,�k�k��,5.3,��
2023/03/25,08:00,0.550,0.799,0.488,1.005,0.702,0.318,0.571,0.544,�k�k��,5.3,��
2023/03/25,08:10,0.548,0.799,0.485,1.006,0.701,0.318,0.572,0.545,�k�k��,6.2,��
2023/03/25,08:20,0.550,0.799,0.486,1.008,0.702,0.318,0.570,0.545,�k��,6.3,��
2023/03/25,08:30,0.550,0.802,0.484,1.006,0.702,0.317,0.572,0.546,�k��,5.3,��
2023/03/25,08:40,0.550,0.800,0.486,1.009,0.702,0.316,0.572,0.544,�k�k��,5.5,��
2023/03/25,08:50,0.547,0.798,0.486,1.007,0.700,0.318,0.574,0.545,�k��,6.2,�L
2023/03/25,09:00,0.552,0.801,0.485,1.008,0.703,0.317,0.572,0.545,�k��,6.1,�L
2023/03/25,09:10,0.550,0.798,0.486,1.007,0.702,0.317,0.570,0.545,�k��,5.5,��
2023/03/25,09:20,0.549,0.800,0.486,1.009,0.702,0.317,0.571,0.545,�k��,5.3,��
2023/03/25,09:30,0.551,0.801,0.485,1.007,0.703,0.317,0.572,0.544,�k��,5.3,��
2023/03/25,09:40,0.551,0.799,0.485,1.008,0.702,0.316,0.570,0.545,�k��,6.3,��
2023/03/25,09:50,0.550,0.801,0.486,1.008,0.702,0.318,0.572,0.543,�k��,5.5,�L
2023/03/25,10:00,0.549,0.799,0.487,1.007,0.704,0.318,0.572,0.545,�k�k��,5.5,��
2023/03/25,10:10,0.552,0.801,0.486,1.008,0.703,0.319,0.573,0.545,�k�k��,4.2,�L
2023/03/25,10:20,0.551,0.802,0.487,1.007,0.702,0.317,0.573,0.544,�k,4.4,�L
2023/03/25,10:30,0.549,0.801,0.487,1.009,0.701,0.317,0.571,0.543,�k,7.4,�L
2023/03/25,10:40,0.552,0.801,0.487,1.008,0.703,0.316,0.573,0.545,�k,7.0,�L
2023/03/25,10:50,0.552,0.802,0.488,1.008,0.703,0.318,0.573,0.545,�k,6.4,�L
2023/03/25,11:00,0.552,0.800,0.488,1.007,0.704,0.319,0.574,0.545,�k,6.7,�L
2023/03/25,11:10,0.553,0.804,0.488,1.008,0.706,0.320,0.575,0.546,�k,6.3,�L
2023/03/25,11:20,0.554,0.802,0.488,1.010,0.705,0.319,0.573,0.546,�k,6.1,�L
2023/03/25,11:30,0.552,0.803,0.489,1.012,0.704,0.320,0.573,0.546,�k,6.3,�L
2023/03/25,11:40,0.552,0.803,0.490,1.009,0.706,0.322,0.574,0.547,�k,5.6,�L
2023/03/25,11:50,0.552,0.803,0.490,1.011,0.706,0.322,0.574,0.546,�k,5.2,�L
2023/03/25,12:00,0.553,0.803,0.489,1.011,0.706,0.322,0.574,0.544,�k,4.7,�L
2023/03/25,12:10,0.553,0.804,0.488,1.011,0.703,0.320,0.573,0.544,�k,5.2,�L
2023/03/25,12:20,0.553,0.806,0.491,1.013,0.704,0.320,0.574,0.545,�k,5.2,�L
2023/03/25,12:30,0.555,0.803,0.490,1.014,0.703,0.320,0.573,0.545,�k,4.2,�L
2023/03/25,12:40,0.552,0.802,0.490,1.013,0.704,0.320,0.574,0.547,�k,2.8,�L
2023/03/25,12:50,0.553,0.802,0.489,1.010,0.706,0.320,0.574,0.545,�k�k��,3.1,�L
2023/03/25,13:00,0.553,0.803,0.490,1.011,0.706,0.320,0.572,0.546,�k,3.3,�L
2023/03/25,13:10,0.554,0.802,0.490,1.010,0.705,0.319,0.573,0.545,�k,3.0,�L
2023/03/25,13:20,0.553,0.803,0.490,1.010,0.705,0.320,0.572,0.545,�k,3.6,�L
2023/03/25,13:30,0.554,0.805,0.489,1.012,0.703,0.319,0.574,0.545,�k,4.5,�L
2023/03/25,13:40,0.553,0.803,0.490,1.009,0.705,0.320,0.573,0.546,�k,4.0,�L
2023/03/25,13:50,0.553,0.803,0.489,1.010,0.704,0.319,0.573,0.547,�k,4.6,�L
2023/03/25,14:00,0.552,0.802,0.488,1.010,0.705,0.318,0.572,0.544,�k�k��,4.3,�L
2023/03/25,14:10,0.552,0.801,0.490,1.010,0.703,0.319,0.572,0.546,�k�k��,5.0,�L
2023/03/25,14:20,0.553,0.800,0.488,1.009,0.705,0.320,0.572,0.546,�k�k��,5.0,�L
2023/03/25,14:30,0.552,0.802,0.489,1.009,0.705,0.319,0.572,0.545,�k�k��,5.2,�L
2023/03/25,14:40,0.551,0.803,0.488,1.008,0.703,0.318,0.571,0.545,�k�k��,5.4,�L
2023/03/25,14:50,0.552,0.803,0.486,1.010,0.704,0.319,0.572,0.545,�k�k��,3.4,�L
2023/03/25,15:00,0.553,0.801,0.486,1.010,0.704,0.318,0.573,0.544,�k,3.5,�L
2023/03/25,15:10,0.551,0.801,0.488,1.009,0.705,0.318,0.573,0.547,�k�k��,3.6,�L
2023/03/25,15:20,0.552,0.802,0.489,1.011,0.704,0.319,0.572,0.545,�k�k��,3.0,�L
2023/03/25,15:30,0.553,0.803,0.490,1.010,0.705,0.320,0.572,0.545,�k�k��,2.2,�L
2023/03/25,15:40,0.552,0.803,0.489,1.011,0.706,0.320,0.573,0.543,�k��,2.6,�L
2023/03/25,15:50,0.553,0.804,0.490,1.012,0.704,0.320,0.574,0.544,�k��,2.3,�L
2023/03/25,16:00,0.553,0.804,0.490,1.014,0.704,0.320,0.573,0.545,�k�k��,2.3,�L
2023/03/25,16:10,0.552,0.802,0.489,1.011,0.703,0.320,0.572,0.545,�k�k��,3.2,�L
2023/03/25,16:20,0.552,0.801,0.489,1.010,0.703,0.320,0.574,0.545,�k�k��,4.0,�L
2023/03/25,16:30,0.552,0.801,0.489,1.012,0.705,0.321,0.572,0.545,�k�k��,4.5,�L
2023/03/25,16:40,0.552,0.803,0.489,1.011,0.704,0.319,0.573,0.546,�k�k��,4.6,�L
2023/03/25,16:50,0.552,0.802,0.488,1.009,0.702,0.319,0.573,0.543,�k�k��,4.3,�L
2023/03/25,17:00,0.550,0.799,0.487,1.009,0.701,0.320,0.572,0.544,�k�k��,5.6,�L
2023/03/25,17:10,0.552,0.801,0.486,1.010,0.703,0.319,0.574,0.544,�k�k��,5.0,�L
2023/03/25,17:20,0.550,0.798,0.486,1.009,0.700,0.319,0.572,0.544,�k�k��,5.3,�L
2023/03/25,17:30,0.550,0.798,0.487,1.009,0.703,0.319,0.574,0.544,�k�k��,4.7,�L
2023/03/25,17:40,0.548,0.800,0.485,1.008,0.702,0.318,0.573,0.544,�k�k��,4.3,�L
2023/03/25,17:50,0.548,0.798,0.485,1.008,0.699,0.318,0.574,0.544,�k�k��,4.6,��
2023/03/25,18:00,0.548,0.798,0.484,1.007,0.702,0.318,0.573,0.544,�k��,4.8,��
2023/03/25,18:10,0.550,0.799,0.486,1.010,0.700,0.317,0.574,0.543,�k��,5.8,��
2023/03/25,18:20,0.549,0.799,0.486,1.008,0.700,0.318,0.575,0.545,�k�k��,5.3,��
2023/03/25,18:30,0.550,0.798,0.485,1.008,0.701,0.318,0.574,0.545,�k�k��,6.2,��
2023/03/25,18:40,0.547,0.798,0.484,1.009,0.700,0.317,0.573,0.543,�k�k��,6.3,��
2023/03/25,18:50,0.549,0.798,0.485,1.008,0.701,0.316,0.574,0.543,�k�k��,5.0,��
2023/03/25,19:00,0.550,0.801,0.485,1.007,0.699,0.317,0.574,0.544,�k�k��,4.2,��
2023/03/25,19:10,0.548,0.800,0.484,1.007,0.700,0.316,0.574,0.545,�k�k��,4.9,��
2023/03/25,19:20,0.548,0.796,0.485,1.006,0.700,0.318,0.572,0.544,�k��,5.1,��
2023/03/25,19:30,0.550,0.797,0.486,1.007,0.699,0.319,0.572,0.544,�k��,4.8,��
2023/03/25,19:40,0.548,0.796,0.484,1.009,0.700,0.318,0.573,0.544,�k��,3.5,��
2023/03/25,19:50,0.548,0.798,0.485,1.006,0.702,0.318,0.572,0.543,�k��,3.8,��
2023/03/25,20:00,0.550,0.797,0.484,1.007,0.700,0.318,0.572,0.544,�k��,4.3,��
2023/03/25,20:10,0.546,0.796,0.484,1.008,0.698,0.317,0.573,0.543,�k��,5.0,��
2023/03/25,20:20,0.549,0.799,0.485,1.007,0.700,0.315,0.572,0.543,�k�k��,5.3,��
2023/03/25,20:30,0.548,0.797,0.485,1.005,0.701,0.317,0.572,0.545,�k�k��,4.9,��
2023/03/25,20:40,0.548,0.796,0.484,1.008,0.701,0.317,0.572,0.545,�k�k��,5.5,��
2023/03/25,20:50,0.549,0.800,0.486,1.007,0.700,0.317,0.572,0.543,�k�k��,5.5,��
2023/03/25,21:00,0.549,0.797,0.485,1.008,0.700,0.318,0.573,0.543,�k�k��,5.0,��
2023/03/25,21:10,0.549,0.799,0.485,1.008,0.701,0.317,0.572,0.543,�k�k��,5.2,��
2023/03/25,21:20,0.548,0.796,0.486,1.007,0.700,0.317,0.572,0.545,�k�k��,4.7,��
2023/03/25,21:30,0.549,0.796,0.484,1.008,0.700,0.316,0.572,0.543,�k�k��,4.3,��
2023/03/25,21:40,0.547,0.798,0.485,1.007,0.700,0.317,0.572,0.544,�k�k��,4.1,��
2023/03/25,21:50,0.549,0.799,0.485,1.007,0.700,0.317,0.573,0.543,�k,4.9,��
2023/03/25,22:00,0.549,0.797,0.484,1.009,0.702,0.318,0.573,0.543,�k�k��,5.1,��
2023/03/25,22:10,0.549,0.797,0.484,1.009,0.703,0.316,0.572,0.544,�k�k��,5.1,��
2023/03/25,22:20,0.549,0.796,0.485,1.008,0.702,0.317,0.573,0.545,�k�k��,4.6,��
2023/03/25,22:30,0.549,0.798,0.487,1.007,0.701,0.317,0.574,0.544,�k�k��,4.4,��
2023/03/25,22:40,0.549,0.799,0.484,1.007,0.701,0.318,0.572,0.543,�k�k��,4.2,��
2023/03/25,22:50,0.550,0.797,0.484,1.008,0.701,0.318,0.572,0.544,�k�k��,4.7,��
2023/03/25,23:00,0.550,0.800,0.486,1.009,0.701,0.317,0.572,0.545,�k�k��,4.7,��
2023/03/25,23:10,0.548,0.798,0.486,1.008,0.700,0.318,0.571,0.545,�k�k��,5.2,��
2023/03/25,23:20,0.549,0.798,0.485,1.008,0.700,0.316,0.570,0.543,�k�k��,5.5,��
2023/03/25,23:30,0.547,0.797,0.485,1.009,0.700,0.317,0.571,0.545,�k�k��,4.7,�L
2023/03/25,23:40,0.548,0.798,0.486,1.010,0.701,0.317,0.571,0.544,�k�k��,3.8,�L
2023/03/25,23:50,0.550,0.800,0.485,1.006,0.701,0.317,0.574,0.544,�k�k��,4.2,�L
